Regional Weather Roundup
Issued by NWS Mt. Holly, NJ

Home | Current Version | Previous Version | Text Only | Print | Product List | Glossary On
Versions: 1 2 3 4 5 6 7 8 9 10 11 12 13 14 15 16 17 18 19 20 21 22 23 24 25 26 27 28 29 30 31 32 33 34 35 36 37 38 39 40 41 42 43 44 45 46
000
ASUS41 KPHI 100712
RWRPHI

REGIONAL WEATHER ROUNDUP
NATIONAL WEATHER SERVICE MOUNT HOLLY NJ
200 AM EST WED FEB 10 2016

NOTE:  "FAIR" INDICATES FEW OR NO CLOUDS BELOW 12,000 FEET WITH NO
SIGNIFICANT WEATHER AND/OR OBSTRUCTIONS TO VISIBILITY.

 * = STATION DOES NOT REPORT PRECIPITATION (E.G. RAIN, SNOW, ETC.)
        OR FOG.

NJZ015>026-100800-
SOUTHERN NEW JERSEY

CITY           SKY/WX    TMP DP  RH WIND       PRES   REMARKS
POMONA         CLOUDY    33  31  92 W9        29.61F WCI  25
WILDWOOD*      CLOUDY    34  28  80 W14       29.64S WCI  24
MILLVILLE      CLOUDY    33  31  92 W9        29.63S WCI  25
WRIGHTSTOWN    CLOUDY    32  32 100 SW3       29.58S
MOUNT HOLLY    CLOUDY    32  32 100 CALM      29.61F FOG
TRENTON        CLOUDY    32  30  92 CALM      29.59F FOG

$$
NJZ001>014-100800-
NORTHERN NEW JERSEY

CITY           SKY/WX    TMP DP  RH WIND       PRES   REMARKS
SUSSEX         CLOUDY    30  28  92 CALM      29.56S FOG
ANDOVER*         N/A     30  28  92 S3        29.56S
MORRISTOWN     CLOUDY    30  28  93 CALM      29.59S FOG
NEWARK         FRZ DRZL  32  30  93 CALM      29.60S FOG
TETERBORO      FLURRIES  32  27  81 CALM      29.59S
CALDWELL       CLOUDY    31  28  89 CALM      29.59F FOG
SOMERVILLE     CLOUDY    31  29  92 CALM      29.59S FOG
ALLAIRE*       CLOUDY    30  25  80 W5        29.60S WCI  25
TOMS RIVER*    CLOUDY    32  28  86 W6        29.61S WCI  26

$$
PAZ043-044-047-054-055-060>062-066>071-100800-
EASTERN PENNSYLVANIA

CITY           SKY/WX    TMP DP  RH WIND       PRES   REMARKS
PHILADELPHIA   CLOUDY    34  28  79 W9        29.63S WCI  27
NORTH PHILA    CLOUDY    34  30  85 W7        29.63S WCI  28
BLUE BELL*       N/A     30  30 100 CALM      29.60S
DOYLESTOWN     CLOUDY    29  28  96 SW5       29.58F WCI  24
QUAKERTOWN*    CLOUDY    28  28 100 CALM      29.59S
PERKASIE*      CLOUDY    28  28 100 CALM      29.59S FOG
POTTSTOWN      LGT SNOW  29  28  96 W3        29.61F FOG
LANCASTER      LGT SNOW  28  26  92 W14       29.62S FOG     WCI  17
COATESVILLE    LGT SNOW  28  28 100 W7        29.61S WCI  21
READING        CLOUDY    30  26  85 W8        29.60S WCI  22
ALLENTOWN      LGT SNOW  31  28  89 SW7       29.58S FOG     WCI  24
MOUNT POCONO   LGT SNOW  26  22  84 W7        29.48S FOG     WCI  18
HAZLETON       LGT SNOW  28  28 100 W5        29.54S WCI  23
LEHIGHTON      LGT SNOW  30  28  93 CALM      29.58F
WILKES BARRE   LGT SNOW  30  28  92 SW7       29.54S FOG     WCI  23

$$
DEZALL-MDZ008-012-015-019-020-100800-
DELAWARE AND EASTERN MARYLAND

CITY           SKY/WX    TMP DP  RH WIND       PRES   REMARKS
WILMINGTON     CLOUDY    32  28  85 W12       29.64S WCI  23
DOVER          CLOUDY    33  29  87 W13       29.63S WCI  23
GEORGETOWN     CLOUDY    33  27  78 W7        29.65F WCI  27
EASTON         CLOUDY    32  26  76 NW14      29.71S WCI  22
PATUXENT       CLOUDY    33  20  58 NW14G21   29.70R WCI  23
OCEAN CITY     CLOUDY    33  28  81 W5        29.66S WCI  29
WALLOPS ISLAND MOCLDY    34  29  82 W6        29.68S WCI  29
CAMBRIDGE      CLOUDY    32  23  69 NW9       29.67S WCI  24
SALISBURY      MOCLDY    32  25  75 W9        29.66S WCI  24

$$
PAZ001-021-NYZ056-072-MDZ011-DCZ001-100800-
OTHER NEARBY LOCATIONS

CITY           SKY/WX    TMP DP  RH WIND       PRES   REMARKS
HARRISBURG     CLOUDY    30  24  78 W13       29.63S WCI  20
STATE COLLEGE  CLOUDY    27  22  82 W14G20    29.60F WCI  16
WILLIAMSPORT   CLOUDY    32  25  75 MISG      29.58S
BINGHAMTON     FOG       27  26  96 SW5       29.48S VSB 1/2 WCI  22
NEW YORK CITY  LGT SNOW  33  28  81 CALM      29.61S
BALTIMORE      CLOUDY    29  22  75 W17       29.67S WCI  17
WASHINGTON DC  CLOUDY    31  20  63 NW14G24   29.72R WCI  21

$$




USA.gov is the U.S. government's official web portal to all federal, state and local government web resources and services.